Priv.Wetterstation: Nettetal-Kaldenkirchen
Wetterdaten: aktuell Montag, 04.05.2026 18:30
Datum Zeit TempA.(2,5m) Temp. (1,5m) TempAmin2,5m TempAmax2,5m Temp.(-60cm) Temp. (+5cm) Feu.A (2,5m) FeuA. (1,5m) BlattFeu(1m) BoFe (-60cm) Luftdruck Regen (2,8m) Wind (3,8m) Richtg(3,8m) Richtg(3,8m) Sonnenschein Zeit Regen ET UV (2,8m) Solar (2,8m) Taupunkt Windchill Wböen (3,8m) Empfang
04.05.2026 18:30 17,8 °C 17,8 °C 17,8 °C 18,1 °C 14,4 °C 16,7 °C 80 % 75 % 15 lf 200 cb 1012,9 hPa 0,0 mm 6,8 km/h (2 Bft) O 101 ° 0 min 0 min 0,000 mm 0,0 UV-I 39 W/m² 14,3 °C 17,8 °C 14,5 km/h (3 Bft) 100 %
04.05.2026 18:20 18,1 °C 17,8 °C 18,1 °C 18,3 °C 14,4 °C 17,8 °C 78 % 75 % 10 lf 200 cb 1012,9 hPa 0,0 mm 5,0 km/h (1 Bft) O 99 ° 0 min 0 min 0,000 mm 0,0 UV-I 47 W/m² 14,2 °C 18,1 °C 12,4 km/h (3 Bft) 100 %
04.05.2026 18:10 18,3 °C 18,3 °C 18,3 °C 18,4 °C 14,4 °C 18,9 °C 76 % 73 % 9 lf 200 cb 1012,9 hPa 0,0 mm 4,9 km/h (1 Bft) O 100 ° 0 min 0 min 0,000 mm 0,0 UV-I 56 W/m² 14,0 °C 18,3 °C 12,4 km/h (3 Bft) 100 %
04.05.2026 18:00 18,4 °C 18,3 °C 18,4 °C 18,5 °C 14,4 °C 20,0 °C 75 % 71 % 1 lf 200 cb 1013,0 hPa 0,0 mm 4,8 km/h (1 Bft) O 96 ° 0 min 0 min 0,051 mm 0,0 UV-I 56 W/m² 13,9 °C 18,4 °C 12,4 km/h (3 Bft) 99 %
04.05.2026 17:50 18,5 °C 18,3 °C 18,5 °C 18,6 °C 14,4 °C 20,0 °C 76 % 72 % 0 lf 200 cb 1012,9 hPa 0,0 mm 3,5 km/h (1 Bft) O-SO 109 ° 0 min 0 min 0,000 mm 0,0 UV-I 58 W/m² 14,2 °C 18,5 °C 8,3 km/h (2 Bft) 96 %
04.05.2026 17:40 18,6 °C 18,3 °C 18,6 °C 18,7 °C 14,4 °C 20,6 °C 75 % 71 % 0 lf 200 cb 1013,0 hPa 0,0 mm 2,3 km/h (1 Bft) O-SO 107 ° 0 min 0 min 0,000 mm 0,0 UV-I 61 W/m² 14,1 °C 18,6 °C 6,2 km/h (2 Bft) 97 %
04.05.2026 17:30 18,7 °C 18,3 °C 18,7 °C 18,8 °C 14,4 °C 20,6 °C 76 % 72 % 2 lf 200 cb 1013,0 hPa 0,0 mm 0,4 km/h (0 Bft) O 84 ° 0 min 0 min 0,000 mm 0,0 UV-I 64 W/m² 14,4 °C 18,7 °C 4,1 km/h (1 Bft) 98 %
04.05.2026 17:20 18,8 °C 18,3 °C 18,6 °C 18,8 °C 14,4 °C 21,1 °C 76 % 72 % 0 lf 200 cb 1013,0 hPa 0,0 mm 0,6 km/h (0 Bft) O 84 ° 0 min 0 min 0,000 mm 0,0 UV-I 70 W/m² 14,5 °C 18,8 °C 6,2 km/h (2 Bft) 99 %
04.05.2026 17:10 18,6 °C 18,3 °C 18,6 °C 18,9 °C 14,4 °C 21,7 °C 75 % 70 % 0 lf 200 cb 1013,0 hPa 0,0 mm 3,9 km/h (1 Bft) O 84 ° 0 min 0 min 0,076 mm 0,0 UV-I 79 W/m² 14,1 °C 18,6 °C 8,3 km/h (2 Bft) 100 %
04.05.2026 17:00 18,9 °C 18,9 °C 18,8 °C 18,9 °C 14,4 °C 21,7 °C 75 % 72 % 0 lf 200 cb 1013,0 hPa 0,0 mm 0,8 km/h (0 Bft) O 96 ° 0 min 0 min 0,000 mm 0,0 UV-I 82 W/m² 14,4 °C 18,9 °C 8,3 km/h (2 Bft) 99 %
04.05.2026 16:50 18,8 °C 18,9 °C 18,7 °C 18,9 °C 14,4 °C 22,8 °C 76 % 72 % 0 lf 200 cb 1013,1 hPa 0,0 mm 1,4 km/h (1 Bft) O 98 ° 0 min 0 min 0,000 mm 0,0 UV-I 89 W/m² 14,5 °C 18,8 °C 6,2 km/h (2 Bft) 97 %
04.05.2026 16:40 18,8 °C 18,3 °C 18,8 °C 19,1 °C 14,4 °C 22,8 °C 75 % 71 % 0 lf 200 cb 1013,0 hPa 0,0 mm 0,3 km/h (0 Bft) O 98 ° 0 min 0 min 0,000 mm 0,5 UV-I 104 W/m² 14,3 °C 18,8 °C 4,1 km/h (1 Bft) 97 %
04.05.2026 16:30 19,0 °C 18,9 °C 18,9 °C 19,1 °C 14,4 °C 23,3 °C 75 % 72 % 0 lf 200 cb 1013,0 hPa 0,0 mm 0,0 km/h (0 Bft) O 98 ° 0 min 0 min 0,000 mm 0,5 UV-I 111 W/m² 14,5 °C 19,0 °C 2,1 km/h (1 Bft) 97 %
04.05.2026 16:20 19,1 °C 18,9 °C 18,9 °C 19,1 °C 14,4 °C 22,8 °C 76 % 72 % 0 lf 200 cb 1013,0 hPa 0,0 mm 0,0 km/h (0 Bft) O 98 ° 0 min 0 min 0,000 mm 0,6 UV-I 116 W/m² 14,8 °C 19,1 °C 0,0 km/h (0 Bft) 97 %
04.05.2026 16:10 19,1 °C 18,9 °C 19,0 °C 19,1 °C 14,4 °C 23,3 °C 75 % 73 % 0 lf 200 cb 1013,1 hPa 0,0 mm 0,1 km/h (0 Bft) O 98 ° 0 min 0 min 0,076 mm 0,6 UV-I 114 W/m² 14,6 °C 19,1 °C 2,1 km/h (1 Bft) 97 %
04.05.2026 16:00 19,0 °C 18,9 °C 18,9 °C 19,1 °C 14,4 °C 23,3 °C 75 % 73 % 0 lf 200 cb 1013,1 hPa 0,0 mm 0,0 km/h (0 Bft) O 98 ° 0 min 0 min 0,000 mm 0,5 UV-I 108 W/m² 14,5 °C 19,0 °C 0,0 km/h (0 Bft) 96 %
04.05.2026 15:50 18,9 °C 18,9 °C 18,9 °C 18,9 °C 14,4 °C 23,3 °C 75 % 73 % 0 lf 200 cb 1013,1 hPa 0,0 mm 0,0 km/h (0 Bft) O 98 ° 0 min 0 min 0,000 mm 0,6 UV-I 116 W/m² 14,4 °C 18,9 °C 2,1 km/h (1 Bft) 96 %
04.05.2026 15:40 18,9 °C 18,3 °C 18,8 °C 18,9 °C 14,4 °C 22,8 °C 75 % 74 % 0 lf 200 cb 1013,2 hPa 0,0 mm 0,3 km/h (0 Bft) O 98 ° 0 min 0 min 0,000 mm 0,4 UV-I 100 W/m² 14,4 °C 18,9 °C 2,1 km/h (1 Bft) 95 %
04.05.2026 15:30 18,8 °C 18,3 °C 18,7 °C 18,8 °C 14,4 °C 22,2 °C 75 % 72 % 0 lf 200 cb 1013,2 hPa 0,0 mm 0,0 km/h (0 Bft) O 98 ° 0 min 0 min 0,000 mm 0,2 UV-I 89 W/m² 14,3 °C 18,8 °C 2,1 km/h (1 Bft) 97 %
04.05.2026 15:20 18,8 °C 18,3 °C 18,8 °C 19,0 °C 14,4 °C 22,2 °C 74 % 72 % 0 lf 200 cb 1013,3 hPa 0,0 mm 0,1 km/h (0 Bft) O 98 ° 0 min 0 min 0,000 mm 0,5 UV-I 93 W/m² 14,1 °C 18,8 °C 2,1 km/h (1 Bft) 97 %
04.05.2026 15:10 19,0 °C 18,3 °C 18,8 °C 19,0 °C 14,4 °C 22,8 °C 74 % 71 % 0 lf 200 cb 1013,3 hPa 0,0 mm 0,0 km/h (0 Bft) O 98 ° 0 min 0 min 0,000 mm 0,5 UV-I 102 W/m² 14,3 °C 19,0 °C 2,1 km/h (1 Bft) 98 %
04.05.2026 15:00 18,8 °C 18,3 °C 18,7 °C 18,8 °C 14,4 °C 23,9 °C 74 % 72 % 0 lf 200 cb 1013,3 hPa 0,0 mm 0,2 km/h (0 Bft) O 98 ° 0 min 0 min 0,077 mm 0,7 UV-I 130 W/m² 14,1 °C 18,8 °C 6,2 km/h (2 Bft) 97 %
04.05.2026 14:50 18,7 °C 18,3 °C 18,6 °C 18,7 °C 14,4 °C 23,3 °C 75 % 71 % 0 lf 200 cb 1013,4 hPa 0,0 mm 0,0 km/h (0 Bft) O 98 ° 0 min 0 min 0,000 mm 0,6 UV-I 122 W/m² 14,2 °C 18,7 °C 2,1 km/h (1 Bft) 97 %
04.05.2026 14:40 18,7 °C 18,3 °C 18,7 °C 18,9 °C 14,4 °C 23,3 °C 73 % 72 % 0 lf 200 cb 1013,3 hPa 0,0 mm 0,1 km/h (0 Bft) O 98 ° 0 min 0 min 0,000 mm 0,6 UV-I 112 W/m² 13,8 °C 18,7 °C 2,1 km/h (1 Bft) 97 %
04.05.2026 14:30 18,9 °C 18,3 °C 18,8 °C 19,0 °C 14,4 °C 23,9 °C 75 % 74 % 0 lf 200 cb 1013,3 hPa 0,0 mm 0,2 km/h (0 Bft) O 98 ° 0 min 0 min 0,000 mm 0,7 UV-I 130 W/m² 14,4 °C 18,9 °C 4,1 km/h (1 Bft) 97 %
04.05.2026 14:20 19,0 °C 18,3 °C 18,8 °C 19,1 °C 14,4 °C 23,9 °C 75 % 72 % 0 lf 200 cb 1013,4 hPa 0,0 mm 0,5 km/h (0 Bft) O 98 ° 0 min 0 min 0,000 mm 0,8 UV-I 141 W/m² 14,5 °C 19,0 °C 6,2 km/h (2 Bft) 97 %
04.05.2026 14:10 18,8 °C 18,3 °C 18,6 °C 18,8 °C 14,4 °C 23,3 °C 78 % 74 % 0 lf 200 cb 1013,4 hPa 0,0 mm 0,2 km/h (0 Bft) O 100 ° 0 min 0 min 0,000 mm 0,7 UV-I 134 W/m² 14,9 °C 18,8 °C 2,1 km/h (1 Bft) 97 %
04.05.2026 14:00 18,6 °C 18,3 °C 18,4 °C 18,6 °C 14,4 °C 22,8 °C 77 % 74 % 0 lf 200 cb 1013,3 hPa 0,0 mm 0,0 km/h (0 Bft) O 100 ° 0 min 0 min 0,076 mm 0,6 UV-I 115 W/m² 14,5 °C 18,6 °C 0,0 km/h (0 Bft) 94 %
04.05.2026 13:50 18,6 °C 18,3 °C 18,4 °C 18,6 °C 14,4 °C 23,3 °C 77 % 74 % 0 lf 200 cb 1013,3 hPa 0,0 mm 0,0 km/h (0 Bft) O 100 ° 0 min 0 min 0,000 mm 0,7 UV-I 125 W/m² 14,5 °C 18,6 °C 0,0 km/h (0 Bft) 95 %
04.05.2026 13:40 18,4 °C 18,3 °C 18,3 °C 18,4 °C 14,4 °C 23,3 °C 77 % 75 % 0 lf 200 cb 1013,4 hPa 0,0 mm 0,0 km/h (0 Bft) O 100 ° 0 min 0 min 0,000 mm 0,7 UV-I 127 W/m² 14,3 °C 18,4 °C 0,0 km/h (0 Bft) 96 %
04.05.2026 13:30 18,3 °C 17,8 °C 18,2 °C 18,3 °C 14,4 °C 23,3 °C 77 % 74 % 0 lf 200 cb 1013,4 hPa 0,0 mm 0,0 km/h (0 Bft) O 100 ° 0 min 0 min 0,000 mm 0,8 UV-I 138 W/m² 14,2 °C 18,3 °C 0,0 km/h (0 Bft) 98 %
04.05.2026 13:20 18,2 °C 18,3 °C 18,2 °C 18,9 °C 14,4 °C 23,3 °C 76 % 74 % 0 lf 200 cb 1013,4 hPa 0,0 mm 0,0 km/h (0 Bft) O 100 ° 0 min 0 min 0,000 mm 0,7 UV-I 129 W/m² 13,9 °C 18,2 °C 0,0 km/h (0 Bft) 100 %
04.05.2026 13:10 18,9 °C 18,3 °C 18,7 °C 18,9 °C 14,4 °C 24,4 °C 77 % 74 % 0 lf 200 cb 1013,4 hPa 0,0 mm 0,2 km/h (0 Bft) O 100 ° 0 min 0 min 0,101 mm 0,8 UV-I 147 W/m² 14,8 °C 18,9 °C 2,1 km/h (1 Bft) 98 %
04.05.2026 13:00 18,7 °C 18,3 °C 18,4 °C 18,7 °C 14,4 °C 25,0 °C 77 % 76 % 0 lf 200 cb 1013,5 hPa 0,0 mm 0,1 km/h (0 Bft) O 100 ° 0 min 0 min 0,000 mm 0,9 UV-I 176 W/m² 14,6 °C 18,7 °C 4,1 km/h (1 Bft) 99 %
04.05.2026 12:50 18,4 °C 18,3 °C 18,3 °C 18,4 °C 14,4 °C 25,0 °C 78 % 73 % 0 lf 200 cb 1013,6 hPa 0,0 mm 0,1 km/h (0 Bft) O 100 ° 0 min 0 min 0,000 mm 0,9 UV-I 176 W/m² 14,5 °C 18,4 °C 4,1 km/h (1 Bft) 99 %
04.05.2026 12:40 18,3 °C 17,8 °C 18,3 °C 18,7 °C 14,4 °C 24,4 °C 78 % 74 % 0 lf 200 cb 1013,6 hPa 0,0 mm 1,1 km/h (1 Bft) O-SO 102 ° 0 min 0 min 0,000 mm 1,0 UV-I 185 W/m² 14,4 °C 18,3 °C 8,3 km/h (2 Bft) 99 %
04.05.2026 12:30 18,7 °C 18,3 °C 18,1 °C 18,7 °C 14,4 °C 25,0 °C 77 % 76 % 0 lf 200 cb 1013,7 hPa 0,0 mm 0,0 km/h (0 Bft) O-SO 107 ° 0 min 0 min 0,000 mm 1,0 UV-I 199 W/m² 14,6 °C 18,7 °C 2,1 km/h (1 Bft) 100 %
04.05.2026 12:20 18,1 °C 17,8 °C 17,9 °C 18,2 °C 14,4 °C 23,3 °C 80 % 76 % 0 lf 200 cb 1013,7 hPa 0,0 mm 0,8 km/h (0 Bft) O-SO 107 ° 0 min 0 min 0,000 mm 0,8 UV-I 156 W/m² 14,6 °C 18,1 °C 4,1 km/h (1 Bft) 99 %
04.05.2026 12:10 18,2 °C 17,8 °C 18,1 °C 18,2 °C 14,4 °C 22,2 °C 80 % 78 % 0 lf 200 cb 1013,7 hPa 0,0 mm 0,1 km/h (0 Bft) O-SO 107 ° 0 min 0 min 0,000 mm 0,6 UV-I 103 W/m² 14,7 °C 18,2 °C 4,1 km/h (1 Bft) 99 %
04.05.2026 12:00 18,2 °C 17,8 °C 18,1 °C 18,2 °C 14,4 °C 21,7 °C 79 % 77 % 0 lf 200 cb 1013,8 hPa 0,0 mm 0,6 km/h (0 Bft) O-SO 107 ° 0 min 0 min 0,204 mm 0,6 UV-I 101 W/m² 14,5 °C 18,2 °C 4,1 km/h (1 Bft) 97 %
04.05.2026 11:50 18,2 °C 17,8 °C 18,0 °C 18,3 °C 14,4 °C 22,8 °C 77 % 75 % 0 lf 200 cb 1013,7 hPa 0,0 mm 1,6 km/h (1 Bft) O-SO 107 ° 0 min 0 min 0,000 mm 0,6 UV-I 118 W/m² 14,1 °C 18,2 °C 8,3 km/h (2 Bft) 97 %
04.05.2026 11:40 18,0 °C 17,8 °C 18,0 °C 18,1 °C 14,4 °C 26,1 °C 78 % 73 % 0 lf 200 cb 1013,7 hPa 0,0 mm 3,0 km/h (1 Bft) O 93 ° 0 min 0 min 0,000 mm 1,0 UV-I 231 W/m² 14,1 °C 18,0 °C 8,3 km/h (2 Bft) 97 %
04.05.2026 11:30 18,1 °C 18,3 °C 18,0 °C 18,4 °C 14,4 °C 28,9 °C 78 % 75 % 0 lf 200 cb 1013,6 hPa 0,0 mm 5,0 km/h (1 Bft) O-SO 114 ° 0 min 0 min 0,000 mm 1,4 UV-I 382 W/m² 14,2 °C 18,1 °C 14,5 km/h (3 Bft) 99 %
04.05.2026 11:20 18,4 °C 18,3 °C 17,3 °C 18,6 °C 14,4 °C 32,2 °C 78 % 75 % 0 lf 200 cb 1013,6 hPa 0,0 mm 3,7 km/h (1 Bft) O 90 ° 10 min 0 min 0,000 mm 1,7 UV-I 518 W/m² 14,5 °C 18,4 °C 12,4 km/h (3 Bft) 100 %
04.05.2026 11:10 17,3 °C 17,8 °C 16,7 °C 17,4 °C 14,4 °C 29,4 °C 82 % 79 % 0 lf 200 cb 1013,5 hPa 0,0 mm 2,3 km/h (1 Bft) O-SO 103 ° 10 min 0 min 0,000 mm 1,3 UV-I 383 W/m² 14,2 °C 17,3 °C 14,5 km/h (3 Bft) 100 %
04.05.2026 11:00 16,7 °C 16,7 °C 16,7 °C 17,2 °C 14,4 °C 22,2 °C 82 % 79 % 0 lf 200 cb 1013,6 hPa 0,0 mm 3,6 km/h (1 Bft) O-SO 116 ° 0 min 0 min 0,101 mm 0,6 UV-I 139 W/m² 13,6 °C 16,7 °C 8,3 km/h (2 Bft) 100 %
04.05.2026 10:50 17,2 °C 16,7 °C 17,2 °C 17,4 °C 14,4 °C 21,7 °C 82 % 80 % 0 lf 200 cb 1013,5 hPa 0,0 mm 0,8 km/h (0 Bft) O 87 ° 0 min 0 min 0,000 mm 0,5 UV-I 118 W/m² 14,1 °C 17,2 °C 6,2 km/h (2 Bft) 100 %
04.05.2026 10:40 17,2 °C 16,7 °C 16,7 °C 17,2 °C 14,4 °C 22,2 °C 84 % 81 % 0 lf 200 cb 1013,5 hPa 0,0 mm 1,0 km/h (0 Bft) O 88 ° 0 min 0 min 0,000 mm 0,6 UV-I 130 W/m² 14,5 °C 17,2 °C 6,2 km/h (2 Bft) 100 %
04.05.2026 10:30 16,9 °C 16,1 °C 16,9 °C 17,4 °C 14,4 °C 21,7 °C 83 % 81 % 0 lf 200 cb 1013,4 hPa 0,0 mm 1,8 km/h (1 Bft) O 88 ° 0 min 0 min 0,000 mm 0,6 UV-I 137 W/m² 14,0 °C 16,9 °C 6,2 km/h (2 Bft) 100 %
04.05.2026 10:20 17,3 °C 16,7 °C 17,0 °C 17,3 °C 14,4 °C 22,2 °C 83 % 80 % 0 lf 200 cb 1013,5 hPa 0,0 mm 0,0 km/h (0 Bft) O 88 ° 0 min 0 min 0,000 mm 0,5 UV-I 128 W/m² 14,4 °C 17,3 °C 0,0 km/h (0 Bft) 100 %
04.05.2026 10:10 17,0 °C 16,7 °C 16,7 °C 17,0 °C 14,4 °C 24,4 °C 84 % 83 % 0 lf 200 cb 1013,4 hPa 0,0 mm 0,0 km/h (0 Bft) O 88 ° 0 min 0 min 0,000 mm 0,6 UV-I 188 W/m² 14,3 °C 17,0 °C 0,0 km/h (0 Bft) 98 %
04.05.2026 10:00 16,8 °C 16,1 °C 16,7 °C 17,2 °C 14,4 °C 24,4 °C 84 % 82 % 0 lf 200 cb 1013,4 hPa 0,0 mm 0,0 km/h (0 Bft) O 88 ° 0 min 0 min 0,153 mm 0,7 UV-I 225 W/m² 14,1 °C 16,8 °C 0,0 km/h (0 Bft) 98 %
04.05.2026 09:50 17,2 °C 16,1 °C 16,5 °C 17,2 °C 14,4 °C 22,2 °C 84 % 83 % 0 lf 200 cb 1013,4 hPa 0,0 mm 0,0 km/h (0 Bft) O 88 ° 0 min 0 min 0,000 mm 0,5 UV-I 162 W/m² 14,5 °C 17,2 °C 0,0 km/h (0 Bft) 97 %
04.05.2026 09:40 16,5 °C 16,1 °C 16,2 °C 16,6 °C 14,4 °C 26,1 °C 87 % 83 % 0 lf 200 cb 1013,4 hPa 0,0 mm 1,6 km/h (1 Bft) O 88 ° 0 min 0 min 0,000 mm 0,7 UV-I 278 W/m² 14,3 °C 16,5 °C 8,3 km/h (2 Bft) 97 %
04.05.2026 09:30 16,2 °C 15,6 °C 16,2 °C 16,6 °C 14,4 °C 23,9 °C 86 % 84 % 0 lf 200 cb 1013,3 hPa 0,0 mm 0,5 km/h (0 Bft) O-SO 109 ° 0 min 0 min 0,000 mm 0,6 UV-I 255 W/m² 13,9 °C 16,2 °C 4,1 km/h (1 Bft) 100 %
04.05.2026 09:20 16,6 °C 15,0 °C 14,7 °C 16,7 °C 14,4 °C 25,6 °C 87 % 85 % 0 lf 200 cb 1013,2 hPa 0,0 mm 0,6 km/h (0 Bft) O-SO 110 ° 10 min 0 min 0,000 mm 0,6 UV-I 314 W/m² 14,4 °C 16,6 °C 4,1 km/h (1 Bft) 99 %
04.05.2026 09:10 14,7 °C 14,4 °C 14,2 °C 14,7 °C 14,4 °C 25,0 °C 92 % 87 % 2 lf 200 cb 1013,2 hPa 0,0 mm 2,9 km/h (1 Bft) O-SO 110 ° 10 min 0 min 0,000 mm 0,6 UV-I 352 W/m² 13,4 °C 14,7 °C 6,2 km/h (2 Bft) 99 %
04.05.2026 09:00 14,2 °C 13,3 °C 13,8 °C 14,2 °C 14,4 °C 22,8 °C 94 % 90 % 10 lf 200 cb 1013,0 hPa 0,0 mm 0,6 km/h (0 Bft) O-SO 111 ° 10 min 0 min 0,101 mm 0,3 UV-I 251 W/m² 13,2 °C 14,2 °C 4,1 km/h (1 Bft) 100 %
04.05.2026 08:50 13,8 °C 13,3 °C 13,8 °C 13,8 °C 14,4 °C 17,2 °C 94 % 90 % 13 lf 200 cb 1013,0 hPa 0,0 mm 1,5 km/h (1 Bft) O-SO 111 ° 0 min 0 min 0,000 mm 0,0 UV-I 109 W/m² 12,9 °C 13,8 °C 6,2 km/h (2 Bft) 100 %
04.05.2026 08:40 13,8 °C 12,8 °C 13,8 °C 13,8 °C 14,4 °C 16,1 °C 93 % 90 % 14 lf 200 cb 1013,0 hPa 0,0 mm 1,8 km/h (1 Bft) O-SO 111 ° 0 min 0 min 0,000 mm 0,0 UV-I 75 W/m² 12,7 °C 13,8 °C 6,2 km/h (2 Bft) 100 %
04.05.2026 08:30 13,8 °C 12,8 °C 13,7 °C 13,8 °C 14,4 °C 16,7 °C 94 % 90 % 15 lf 200 cb 1013,0 hPa 0,0 mm 2,0 km/h (1 Bft) O-SO 111 ° 0 min 0 min 0,000 mm 0,0 UV-I 96 W/m² 12,9 °C 13,8 °C 8,3 km/h (2 Bft) 100 %
04.05.2026 08:20 13,8 °C 12,2 °C 13,3 °C 13,8 °C 14,4 °C 19,4 °C 94 % 90 % 15 lf 200 cb 1013,0 hPa 0,0 mm 1,1 km/h (1 Bft) O 96 ° 10 min 0 min 0,000 mm 0,0 UV-I 210 W/m² 12,9 °C 13,8 °C 6,2 km/h (2 Bft) 100 %
04.05.2026 08:10 13,3 °C 12,2 °C 12,9 °C 13,3 °C 14,4 °C 19,4 °C 94 % 89 % 15 lf 200 cb 1012,8 hPa 0,0 mm 0,6 km/h (0 Bft) O 88 ° 10 min 0 min 0,051 mm 0,0 UV-I 189 W/m² 12,4 °C 13,3 °C 6,2 km/h (2 Bft) 100 %
04.05.2026 08:00 12,9 °C 12,2 °C 12,4 °C 12,9 °C 14,4 °C 16,1 °C 94 % 89 % 15 lf 200 cb 1012,9 hPa 0,0 mm 0,4 km/h (0 Bft) O 88 ° 10 min 0 min 0,000 mm 0,0 UV-I 165 W/m² 12,0 °C 12,9 °C 4,1 km/h (1 Bft) 100 %
04.05.2026 07:50 12,4 °C 11,7 °C 12,1 °C 12,4 °C 14,4 °C 13,3 °C 94 % 89 % 15 lf 200 cb 1012,6 hPa 0,0 mm 0,1 km/h (0 Bft) O 88 ° 0 min 0 min 0,000 mm 0,0 UV-I 111 W/m² 11,5 °C 12,4 °C 2,1 km/h (1 Bft) 98 %
04.05.2026 07:40 12,1 °C 11,1 °C 11,8 °C 12,1 °C 14,4 °C 13,3 °C 93 % 88 % 15 lf 200 cb 1012,6 hPa 0,0 mm 0,0 km/h (0 Bft) O 88 ° 0 min 0 min 0,000 mm 0,0 UV-I 58 W/m² 11,0 °C 12,1 °C 2,1 km/h (1 Bft) 98 %
04.05.2026 07:30 11,8 °C 11,1 °C 11,6 °C 11,8 °C 14,4 °C 13,3 °C 93 % 88 % 15 lf 200 cb 1012,5 hPa 0,0 mm 0,0 km/h (0 Bft) O 88 ° 0 min 0 min 0,000 mm 0,0 UV-I 64 W/m² 10,7 °C 11,8 °C 0,0 km/h (0 Bft) 97 %
04.05.2026 07:20 11,6 °C 10,6 °C 11,4 °C 11,6 °C 14,4 °C 12,2 °C 93 % 87 % 15 lf 200 cb 1012,7 hPa 0,0 mm 0,0 km/h (0 Bft) O 88 ° 0 min 0 min 0,000 mm 0,0 UV-I 32 W/m² 10,5 °C 11,6 °C 0,0 km/h (0 Bft) 99 %
04.05.2026 07:10 11,4 °C 10,6 °C 11,3 °C 11,4 °C 14,4 °C 11,1 °C 93 % 87 % 15 lf 200 cb 1012,6 hPa 0,0 mm 0,0 km/h (0 Bft) O 88 ° 0 min 0 min 0,000 mm 0,0 UV-I 14 W/m² 10,3 °C 11,4 °C 0,0 km/h (0 Bft) 100 %
04.05.2026 07:00 11,3 °C 10,6 °C 11,3 °C 11,3 °C 14,4 °C 11,1 °C 93 % 87 % 15 lf 200 cb 1012,5 hPa 0,0 mm 0,0 km/h (0 Bft) O 88 ° 0 min 0 min 0,000 mm 0,0 UV-I 27 W/m² 10,2 °C 11,3 °C 0,0 km/h (0 Bft) 99 %
04.05.2026 06:50 11,3 °C 10,6 °C 11,3 °C 11,3 °C 14,4 °C 9,4 °C 92 % 87 % 15 lf 200 cb 1012,4 hPa 0,0 mm 0,0 km/h (0 Bft) O 88 ° 0 min 0 min 0,000 mm 0,0 UV-I 16 W/m² 10,0 °C 11,3 °C 0,0 km/h (0 Bft) 100 %
04.05.2026 06:40 11,3 °C 10,6 °C 11,3 °C 11,3 °C 14,4 °C 8,9 °C 92 % 87 % 15 lf 200 cb 1012,5 hPa 0,0 mm 0,0 km/h (0 Bft) O 88 ° 0 min 0 min 0,000 mm 0,0 UV-I 8 W/m² 10,0 °C 11,3 °C 0,0 km/h (0 Bft) 100 %
04.05.2026 06:30 11,3 °C 10,6 °C 11,3 °C 11,3 °C 14,4 °C 8,9 °C 92 % 87 % 15 lf 200 cb 1012,4 hPa 0,0 mm 0,0 km/h (0 Bft) O 88 ° 0 min 0 min 0,000 mm 0,0 UV-I 2 W/m² 10,0 °C 11,3 °C 0,0 km/h (0 Bft) 100 %
04.05.2026 06:20 11,3 °C 10,6 °C 11,3 °C 11,4 °C 14,4 °C 8,9 °C 92 % 87 % 15 lf 200 cb 1012,6 hPa 0,0 mm 0,0 km/h (0 Bft) O 88 ° 0 min 0 min 0,000 mm 0,0 UV-I 0 W/m² 10,0 °C 11,3 °C 0,0 km/h (0 Bft) 100 %
04.05.2026 06:10 11,4 °C 10,6 °C 11,4 °C 11,5 °C 14,4 °C 8,9 °C 92 % 87 % 15 lf 200 cb 1012,5 hPa 0,0 mm 0,0 km/h (0 Bft) O 88 ° 0 min 0 min 0,000 mm 0,0 UV-I 0 W/m² 10,1 °C 11,4 °C 0,0 km/h (0 Bft) 100 %
04.05.2026 06:00 11,5 °C 10,6 °C 11,5 °C 11,6 °C 14,4 °C 8,9 °C 92 % 86 % 15 lf 200 cb 1012,5 hPa 0,0 mm 0,0 km/h (0 Bft) O 88 ° 0 min 0 min 0,000 mm 0,0 UV-I 0 W/m² 10,2 °C 11,5 °C 0,0 km/h (0 Bft) 98 %
04.05.2026 05:50 11,6 °C 11,1 °C 11,6 °C 11,7 °C 14,4 °C 8,9 °C 92 % 86 % 15 lf 200 cb 1012,5 hPa 0,0 mm 0,0 km/h (0 Bft) O 88 ° 0 min 0 min 0,000 mm 0,0 UV-I 0 W/m² 10,3 °C 11,6 °C 0,0 km/h (0 Bft) 98 %
04.05.2026 05:40 11,7 °C 11,1 °C 11,7 °C 11,9 °C 14,4 °C 8,9 °C 92 % 87 % 15 lf 200 cb 1012,4 hPa 0,0 mm 0,0 km/h (0 Bft) O 88 ° 0 min 0 min 0,000 mm 0,0 UV-I 0 W/m² 10,4 °C 11,7 °C 0,0 km/h (0 Bft) 97 %
04.05.2026 05:30 11,8 °C 11,1 °C 11,8 °C 11,9 °C 14,4 °C 8,9 °C 92 % 87 % 15 lf 200 cb 1012,4 hPa 0,0 mm 0,0 km/h (0 Bft) N 0 ° 0 min 0 min 0,000 mm 0,0 UV-I 0 W/m² 10,5 °C 11,8 °C 0,0 km/h (0 Bft) 100 %
04.05.2026 05:20 11,9 °C 11,1 °C 11,8 °C 11,9 °C 14,4 °C 9,4 °C 92 % 86 % 15 lf 200 cb 1012,5 hPa 0,0 mm 0,0 km/h (0 Bft) N 0 ° 0 min 0 min 0,000 mm 0,0 UV-I 0 W/m² 10,6 °C 11,9 °C 0,0 km/h (0 Bft) 100 %
04.05.2026 05:10 11,9 °C 11,1 °C 11,9 °C 12,1 °C 14,4 °C 9,4 °C 92 % 86 % 15 lf 200 cb 1012,6 hPa 0,0 mm 0,0 km/h (0 Bft) O 88 ° 0 min 0 min 0,000 mm 0,0 UV-I 0 W/m² 10,6 °C 11,9 °C 0,0 km/h (0 Bft) 100 %
04.05.2026 05:00 12,1 °C 11,1 °C 12,0 °C 12,1 °C 14,4 °C 9,4 °C 92 % 86 % 15 lf 200 cb 1012,5 hPa 0,0 mm 0,0 km/h (0 Bft) O 88 ° 0 min 0 min 0,000 mm 0,0 UV-I 0 W/m² 10,8 °C 12,1 °C 0,0 km/h (0 Bft) 100 %
04.05.2026 04:50 12,1 °C 11,1 °C 12,0 °C 12,1 °C 14,4 °C 10,0 °C 92 % 86 % 15 lf 200 cb 1012,4 hPa 0,0 mm 0,0 km/h (0 Bft) O 88 ° 0 min 0 min 0,000 mm 0,0 UV-I 0 W/m² 10,8 °C 12,1 °C 0,0 km/h (0 Bft) 100 %
04.05.2026 04:40 12,1 °C 11,7 °C 12,1 °C 12,3 °C 14,4 °C 10,0 °C 91 % 86 % 15 lf 200 cb 1012,5 hPa 0,0 mm 0,0 km/h (0 Bft) O 88 ° 0 min 0 min 0,000 mm 0,0 UV-I 0 W/m² 10,7 °C 12,1 °C 0,0 km/h (0 Bft) 100 %
04.05.2026 04:30 12,2 °C 11,7 °C 12,2 °C 12,3 °C 14,4 °C 10,0 °C 91 % 86 % 15 lf 200 cb 1012,5 hPa 0,0 mm 0,0 km/h (0 Bft) O 88 ° 0 min 0 min 0,000 mm 0,0 UV-I 0 W/m² 10,8 °C 12,2 °C 0,0 km/h (0 Bft) 100 %
04.05.2026 04:26 12,2 °C 11,7 °C 12,2 °C 12,3 °C 14,4 °C 10,0 °C 91 % 86 % 15 lf 200 cb 1012,5 hPa 0,0 mm 0,0 km/h (0 Bft) O 88 ° 0 min 0 min 0,000 mm 0,0 UV-I 0 W/m² 10,8 °C 12,2 °C 0,0 km/h (0 Bft) 98 %
04.05.2026 04:10 12,3 °C 11,7 °C 12,3 °C 12,4 °C 14,4 °C 10,0 °C 91 % 86 % 15 lf 200 cb 1012,6 hPa 0,0 mm 0,0 km/h (0 Bft) O 88 ° 0 min 0 min 0,000 mm 0,0 UV-I 0 W/m² 10,9 °C 12,3 °C 0,0 km/h (0 Bft) 94 %
04.05.2026 04:00 12,4 °C 11,7 °C 12,4 °C 12,5 °C 14,4 °C 10,0 °C 91 % 86 % 15 lf 200 cb 1012,5 hPa 0,0 mm 0,0 km/h (0 Bft) O 88 ° 0 min 0 min 0,000 mm 0,0 UV-I 0 W/m² 11,0 °C 12,4 °C 0,0 km/h (0 Bft) 95 %
04.05.2026 03:50 12,5 °C 11,7 °C 12,5 °C 12,6 °C 14,4 °C 10,0 °C 91 % 86 % 15 lf 200 cb 1012,5 hPa 0,0 mm 0,0 km/h (0 Bft) O 88 ° 0 min 0 min 0,000 mm 0,0 UV-I 0 W/m² 11,1 °C 12,5 °C 0,0 km/h (0 Bft) 95 %
04.05.2026 03:40 12,6 °C 11,7 °C 12,6 °C 12,6 °C 14,4 °C 10,0 °C 91 % 86 % 15 lf 200 cb 1012,5 hPa 0,0 mm 0,0 km/h (0 Bft) O 88 ° 0 min 0 min 0,000 mm 0,0 UV-I 0 W/m² 11,2 °C 12,6 °C 0,0 km/h (0 Bft) 97 %
04.05.2026 03:30 12,6 °C 12,2 °C 12,6 °C 12,7 °C 14,4 °C 10,0 °C 91 % 86 % 15 lf 200 cb 1012,6 hPa 0,0 mm 0,0 km/h (0 Bft) O 88 ° 0 min 0 min 0,000 mm 0,0 UV-I 0 W/m² 11,2 °C 12,6 °C 0,0 km/h (0 Bft) 97 %
04.05.2026 03:20 12,7 °C 12,2 °C 12,7 °C 12,8 °C 14,4 °C 10,6 °C 91 % 86 % 15 lf 200 cb 1012,5 hPa 0,0 mm 0,0 km/h (0 Bft) O 88 ° 0 min 0 min 0,000 mm 0,0 UV-I 0 W/m² 11,3 °C 12,7 °C 0,0 km/h (0 Bft) 97 %
04.05.2026 03:10 12,8 °C 12,2 °C 12,8 °C 12,8 °C 14,4 °C 10,6 °C 91 % 86 % 15 lf 200 cb 1012,6 hPa 0,0 mm 0,0 km/h (0 Bft) O 88 ° 0 min 0 min 0,000 mm 0,0 UV-I 0 W/m² 11,4 °C 12,8 °C 0,0 km/h (0 Bft) 97 %
04.05.2026 03:00 12,8 °C 12,2 °C 12,8 °C 12,9 °C 14,4 °C 10,6 °C 91 % 86 % 15 lf 200 cb 1012,5 hPa 0,0 mm 0,0 km/h (0 Bft) O 88 ° 0 min 0 min 0,000 mm 0,0 UV-I 0 W/m² 11,4 °C 12,8 °C 0,0 km/h (0 Bft) 98 %
04.05.2026 02:50 12,9 °C 12,2 °C 12,9 °C 13,0 °C 14,4 °C 10,0 °C 91 % 86 % 15 lf 200 cb 1012,5 hPa 0,0 mm 0,0 km/h (0 Bft) O 88 ° 0 min 0 min 0,000 mm 0,0 UV-I 0 W/m² 11,5 °C 12,9 °C 0,0 km/h (0 Bft) 97 %
04.05.2026 02:40 13,0 °C 12,2 °C 13,0 °C 13,1 °C 14,4 °C 10,0 °C 91 % 86 % 15 lf 200 cb 1012,5 hPa 0,0 mm 0,0 km/h (0 Bft) O 88 ° 0 min 0 min 0,000 mm 0,0 UV-I 0 W/m² 11,6 °C 13,0 °C 0,0 km/h (0 Bft) 97 %
04.05.2026 02:30 13,1 °C 12,8 °C 13,1 °C 13,2 °C 14,4 °C 10,6 °C 91 % 86 % 15 lf 200 cb 1012,5 hPa 0,0 mm 0,0 km/h (0 Bft) O 88 ° 0 min 0 min 0,000 mm 0,0 UV-I 0 W/m² 11,7 °C 13,1 °C 0,0 km/h (0 Bft) 96 %
04.05.2026 02:20 13,2 °C 12,8 °C 13,2 °C 13,3 °C 14,4 °C 10,6 °C 91 % 85 % 15 lf 200 cb 1012,4 hPa 0,0 mm 0,0 km/h (0 Bft) O 88 ° 0 min 0 min 0,000 mm 0,0 UV-I 0 W/m² 11,8 °C 13,2 °C 0,0 km/h (0 Bft) 94 %
04.05.2026 02:10 13,3 °C 12,8 °C 13,3 °C 13,4 °C 14,4 °C 10,6 °C 91 % 85 % 15 lf 200 cb 1012,3 hPa 0,0 mm 0,0 km/h (0 Bft) O 88 ° 0 min 0 min 0,000 mm 0,0 UV-I 0 W/m² 11,9 °C 13,3 °C 0,0 km/h (0 Bft) 95 %
04.05.2026 02:00 13,4 °C 12,8 °C 13,4 °C 13,6 °C 14,4 °C 11,1 °C 90 % 86 % 15 lf 200 cb 1012,4 hPa 0,0 mm 0,0 km/h (0 Bft) O 88 ° 0 min 0 min 0,000 mm 0,0 UV-I 0 W/m² 11,8 °C 13,4 °C 0,0 km/h (0 Bft) 95 %
04.05.2026 01:50 13,6 °C 12,8 °C 13,6 °C 13,7 °C 14,4 °C 11,1 °C 90 % 85 % 15 lf 200 cb 1012,4 hPa 0,0 mm 0,0 km/h (0 Bft) O 88 ° 0 min 0 min 0,000 mm 0,0 UV-I 0 W/m² 12,0 °C 13,6 °C 0,0 km/h (0 Bft) 97 %
04.05.2026 01:40 13,7 °C 13,3 °C 13,7 °C 13,8 °C 14,4 °C 11,1 °C 90 % 85 % 15 lf 200 cb 1012,4 hPa 0,0 mm 0,0 km/h (0 Bft) O 88 ° 0 min 0 min 0,000 mm 0,0 UV-I 0 W/m² 12,1 °C 13,7 °C 0,0 km/h (0 Bft) 97 %
04.05.2026 01:30 13,8 °C 13,3 °C 13,8 °C 13,9 °C 14,4 °C 11,1 °C 90 % 85 % 15 lf 200 cb 1012,3 hPa 0,0 mm 0,0 km/h (0 Bft) O 88 ° 0 min 0 min 0,000 mm 0,0 UV-I 0 W/m² 12,2 °C 13,8 °C 0,0 km/h (0 Bft) 97 %
04.05.2026 01:20 13,9 °C 13,3 °C 13,9 °C 14,1 °C 14,4 °C 11,1 °C 90 % 85 % 15 lf 200 cb 1012,4 hPa 0,0 mm 0,0 km/h (0 Bft) O 88 ° 0 min 0 min 0,000 mm 0,0 UV-I 0 W/m² 12,3 °C 13,9 °C 0,0 km/h (0 Bft) 97 %
04.05.2026 01:10 14,1 °C 13,3 °C 14,0 °C 14,2 °C 14,4 °C 11,7 °C 90 % 85 % 15 lf 200 cb 1012,4 hPa 0,0 mm 0,0 km/h (0 Bft) O 88 ° 0 min 0 min 0,000 mm 0,0 UV-I 0 W/m² 12,5 °C 14,1 °C 0,0 km/h (0 Bft) 97 %
04.05.2026 01:00 14,2 °C 13,3 °C 14,2 °C 14,3 °C 14,4 °C 11,1 °C 90 % 85 % 15 lf 200 cb 1012,4 hPa 0,0 mm 0,0 km/h (0 Bft) O 88 ° 0 min 0 min 0,000 mm 0,0 UV-I 0 W/m² 12,6 °C 14,2 °C 0,0 km/h (0 Bft) 97 %
04.05.2026 00:50 14,3 °C 13,9 °C 14,3 °C 14,3 °C 14,4 °C 11,1 °C 90 % 85 % 15 lf 200 cb 1012,4 hPa 0,0 mm 0,0 km/h (0 Bft) O 88 ° 0 min 0 min 0,000 mm 0,0 UV-I 0 W/m² 12,7 °C 14,3 °C 0,0 km/h (0 Bft) 99 %
04.05.2026 00:40 14,3 °C 13,9 °C 14,3 °C 14,4 °C 14,4 °C 11,7 °C 90 % 85 % 15 lf 200 cb 1012,3 hPa 0,0 mm 0,0 km/h (0 Bft) O 88 ° 0 min 0 min 0,000 mm 0,0 UV-I 0 W/m² 12,7 °C 14,3 °C 0,0 km/h (0 Bft) 100 %
04.05.2026 00:30 14,4 °C 13,9 °C 14,4 °C 14,8 °C 14,4 °C 12,2 °C 90 % 85 % 15 lf 200 cb 1012,4 hPa 0,0 mm 0,0 km/h (0 Bft) O 88 ° 0 min 0 min 0,000 mm 0,0 UV-I 0 W/m² 12,8 °C 14,4 °C 0,0 km/h (0 Bft) 97 %
04.05.2026 00:10 14,7 °C 14,4 °C 14,7 °C 14,8 °C 14,4 °C 12,8 °C 90 % 85 % 15 lf 200 cb 1012,5 hPa 0,0 mm 0,0 km/h (0 Bft) N 0 ° 0 min 0 min 0,000 mm 0,0 UV-I 0 W/m² 13,1 °C 14,7 °C 0,0 km/h (0 Bft) 99 %
04.05.2026 00:00 14,8 °C 14,4 °C 14,8 °C 14,9 °C 14,4 °C 12,8 °C 89 % 85 % 15 lf 200 cb 1012,6 hPa 0,0 mm 0,0 km/h (0 Bft) N 0 ° 0 min 0 min 0,000 mm 0,0 UV-I 0 W/m² 13,0 °C 14,8 °C 0,0 km/h (0 Bft) 100 %
03.05.2026 23:50 14,9 °C 14,4 °C 14,9 °C 15,0 °C 14,4 °C 12,8 °C 89 % 84 % 15 lf 200 cb 1012,5 hPa 0,2 mm 0,0 km/h (0 Bft) O 88 ° 0 min 10 min 0,000 mm 0,0 UV-I 0 W/m² 13,1 °C 14,9 °C 0,0 km/h (0 Bft) 99 %
03.05.2026 23:40 15,0 °C 14,4 °C 15,0 °C 15,1 °C 14,4 °C 12,2 °C 89 % 84 % 15 lf 200 cb 1012,4 hPa 0,0 mm 0,0 km/h (0 Bft) O 88 ° 0 min 0 min 0,000 mm 0,0 UV-I 0 W/m² 13,2 °C 15,0 °C 0,0 km/h (0 Bft) 99 %
03.05.2026 23:30 15,1 °C 15,0 °C 15,1 °C 15,2 °C 14,4 °C 12,8 °C 88 % 84 % 15 lf 200 cb 1012,4 hPa 0,0 mm 0,0 km/h (0 Bft) O 88 ° 0 min 0 min 0,000 mm 0,0 UV-I 0 W/m² 13,1 °C 15,1 °C 0,0 km/h (0 Bft) 100 %
03.05.2026 23:20 15,2 °C 15,0 °C 15,2 °C 15,3 °C 14,4 °C 13,3 °C 88 % 84 % 15 lf 200 cb 1012,3 hPa 0,0 mm 0,0 km/h (0 Bft) O 88 ° 0 min 0 min 0,000 mm 0,0 UV-I 0 W/m² 13,2 °C 15,2 °C 0,0 km/h (0 Bft) 100 %
03.05.2026 23:10 15,3 °C 15,0 °C 15,3 °C 15,4 °C 14,4 °C 13,9 °C 88 % 84 % 15 lf 200 cb 1012,4 hPa 0,2 mm 0,0 km/h (0 Bft) O 88 ° 0 min 10 min 0,000 mm 0,0 UV-I 0 W/m² 13,3 °C 15,3 °C 0,0 km/h (0 Bft) 100 %
03.05.2026 23:00 15,4 °C 15,0 °C 15,4 °C 15,5 °C 14,4 °C 13,9 °C 88 % 84 % 15 lf 200 cb 1012,5 hPa 0,0 mm 0,0 km/h (0 Bft) O 88 ° 0 min 0 min 0,000 mm 0,0 UV-I 0 W/m² 13,4 °C 15,4 °C 2,1 km/h (1 Bft) 100 %
03.05.2026 22:50 15,5 °C 15,0 °C 15,5 °C 15,6 °C 14,4 °C 13,9 °C 88 % 84 % 15 lf 200 cb 1012,6 hPa 0,0 mm 0,1 km/h (0 Bft) O 88 ° 0 min 0 min 0,000 mm 0,0 UV-I 0 W/m² 13,5 °C 15,5 °C 2,1 km/h (1 Bft) 99 %
03.05.2026 22:40 15,6 °C 15,6 °C 15,6 °C 15,7 °C 14,4 °C 13,9 °C 88 % 83 % 15 lf 200 cb 1012,5 hPa 0,0 mm 0,1 km/h (0 Bft) O 88 ° 0 min 0 min 0,000 mm 0,0 UV-I 0 W/m² 13,6 °C 15,6 °C 2,1 km/h (1 Bft) 98 %
03.05.2026 22:30 15,7 °C 15,6 °C 15,7 °C 15,7 °C 14,4 °C 13,9 °C 88 % 83 % 15 lf 200 cb 1012,7 hPa 0,2 mm 0,0 km/h (0 Bft) O 88 ° 0 min 10 min 0,000 mm 0,0 UV-I 0 W/m² 13,7 °C 15,7 °C 2,1 km/h (1 Bft) 97 %
03.05.2026 22:20 15,7 °C 15,6 °C 15,7 °C 15,7 °C 14,4 °C 13,9 °C 87 % 82 % 15 lf 200 cb 1012,6 hPa 0,0 mm 0,0 km/h (0 Bft) O 88 ° 0 min 0 min 0,000 mm 0,0 UV-I 0 W/m² 13,5 °C 15,7 °C 0,0 km/h (0 Bft) 98 %
03.05.2026 22:10 15,7 °C 15,6 °C 15,7 °C 15,8 °C 14,4 °C 14,4 °C 87 % 82 % 15 lf 200 cb 1012,7 hPa 0,0 mm 0,2 km/h (0 Bft) O 88 ° 0 min 0 min 0,000 mm 0,0 UV-I 0 W/m² 13,5 °C 15,7 °C 2,1 km/h (1 Bft) 100 %
03.05.2026 22:00 15,8 °C 15,6 °C 15,8 °C 15,8 °C 14,4 °C 15,0 °C 87 % 81 % 2 lf 200 cb 1012,5 hPa 0,0 mm 0,0 km/h (0 Bft) O 88 ° 0 min 0 min 0,000 mm 0,0 UV-I 0 W/m² 13,6 °C 15,8 °C 0,0 km/h (0 Bft) 100 %
03.05.2026 21:50 15,8 °C 15,6 °C 15,8 °C 15,8 °C 14,4 °C 15,0 °C 87 % 81 % 0 lf 200 cb 1012,4 hPa 0,0 mm 0,0 km/h (0 Bft) O 88 ° 0 min 0 min 0,000 mm 0,0 UV-I 0 W/m² 13,6 °C 15,8 °C 0,0 km/h (0 Bft) 99 %
03.05.2026 21:40 15,8 °C 15,6 °C 15,8 °C 15,9 °C 14,4 °C 15,0 °C 87 % 81 % 0 lf 200 cb 1012,2 hPa 0,0 mm 0,0 km/h (0 Bft) O 88 ° 0 min 0 min 0,000 mm 0,0 UV-I 0 W/m² 13,6 °C 15,8 °C 0,0 km/h (0 Bft) 100 %
03.05.2026 21:30 15,9 °C 15,6 °C 15,9 °C 15,9 °C 14,4 °C 15,0 °C 87 % 81 % 0 lf 200 cb 1012,2 hPa 0,0 mm 0,0 km/h (0 Bft) O 88 ° 0 min 0 min 0,000 mm 0,0 UV-I 0 W/m² 13,7 °C 15,9 °C 0,0 km/h (0 Bft) 100 %
03.05.2026 21:20 15,9 °C 15,6 °C 15,9 °C 15,9 °C 14,4 °C 15,0 °C 87 % 81 % 0 lf 200 cb 1012,2 hPa 0,0 mm 0,0 km/h (0 Bft) O 88 ° 0 min 0 min 0,000 mm 0,0 UV-I 0 W/m² 13,7 °C 15,9 °C 0,0 km/h (0 Bft) 99 %
03.05.2026 21:10 15,9 °C 15,6 °C 15,9 °C 16,1 °C 14,4 °C 15,0 °C 87 % 81 % 0 lf 200 cb 1012,0 hPa 0,0 mm 0,0 km/h (0 Bft) O 88 ° 0 min 0 min 0,000 mm 0,0 UV-I 0 W/m² 13,7 °C 15,9 °C 0,0 km/h (0 Bft) 100 %
03.05.2026 21:00 16,0 °C 15,6 °C 16,0 °C 16,2 °C 14,4 °C 15,0 °C 87 % 81 % 0 lf 200 cb 1011,9 hPa 0,0 mm 0,0 km/h (0 Bft) O 88 ° 0 min 0 min 0,000 mm 0,0 UV-I 0 W/m² 13,8 °C 16,0 °C 2,1 km/h (1 Bft) 98 %
03.05.2026 20:50 16,1 °C 16,1 °C 16,1 °C 16,2 °C 14,4 °C 15,0 °C 87 % 81 % 0 lf 200 cb 1011,8 hPa 0,0 mm 0,1 km/h (0 Bft) O 88 ° 0 min 0 min 0,000 mm 0,0 UV-I 0 W/m² 13,9 °C 16,1 °C 2,1 km/h (1 Bft) 98 %
03.05.2026 20:40 16,2 °C 16,1 °C 16,2 °C 16,2 °C 14,4 °C 15,6 °C 87 % 81 % 0 lf 200 cb 1011,6 hPa 0,0 mm 0,1 km/h (0 Bft) O 88 ° 0 min 0 min 0,000 mm 0,0 UV-I 1 W/m² 14,0 °C 16,2 °C 4,1 km/h (1 Bft) 98 %
03.05.2026 20:30 16,2 °C 16,1 °C 16,2 °C 16,3 °C 14,4 °C 15,6 °C 87 % 82 % 0 lf 200 cb 1011,8 hPa 0,0 mm 0,0 km/h (0 Bft) O 92 ° 0 min 0 min 0,000 mm 0,0 UV-I 11 W/m² 14,0 °C 16,2 °C 0,0 km/h (0 Bft) 98 %
03.05.2026 20:20 16,3 °C 16,1 °C 16,3 °C 16,3 °C 14,4 °C 16,1 °C 88 % 82 % 0 lf 200 cb 1011,6 hPa 0,0 mm 0,0 km/h (0 Bft) O 92 ° 0 min 0 min 0,000 mm 0,0 UV-I 13 W/m² 14,3 °C 16,3 °C 0,0 km/h (0 Bft) 100 %
03.05.2026 20:10 16,3 °C 16,1 °C 16,3 °C 16,4 °C 14,4 °C 16,1 °C 88 % 82 % 0 lf 200 cb 1011,6 hPa 0,0 mm 0,0 km/h (0 Bft) O 92 ° 0 min 0 min 0,025 mm 0,0 UV-I 11 W/m² 14,3 °C 16,3 °C 0,0 km/h (0 Bft) 100 %
03.05.2026 20:00 16,4 °C 16,1 °C 16,4 °C 16,5 °C 14,4 °C 16,1 °C 88 % 82 % 0 lf 200 cb 1011,6 hPa 0,0 mm 0,6 km/h (0 Bft) O 92 ° 0 min 0 min 0,000 mm 0,0 UV-I 14 W/m² 14,4 °C 16,4 °C 4,1 km/h (1 Bft) 100 %
03.05.2026 19:50 16,5 °C 16,1 °C 16,5 °C 16,5 °C 14,4 °C 16,1 °C 88 % 82 % 0 lf 200 cb 1011,6 hPa 0,0 mm 0,4 km/h (0 Bft) O 92 ° 0 min 0 min 0,000 mm 0,0 UV-I 17 W/m² 14,5 °C 16,5 °C 4,1 km/h (1 Bft) 99 %
03.05.2026 19:40 16,5 °C 16,7 °C 16,4 °C 16,5 °C 14,4 °C 16,7 °C 88 % 83 % 0 lf 200 cb 1011,7 hPa 0,0 mm 0,1 km/h (0 Bft) O 92 ° 0 min 0 min 0,000 mm 0,0 UV-I 20 W/m² 14,5 °C 16,5 °C 2,1 km/h (1 Bft) 99 %
03.05.2026 19:30 16,5 °C 16,7 °C 16,5 °C 16,5 °C 14,4 °C 16,7 °C 88 % 83 % 0 lf 200 cb 1011,7 hPa 0,0 mm 0,7 km/h (0 Bft) O 92 ° 0 min 0 min 0,000 mm 0,0 UV-I 28 W/m² 14,5 °C 16,5 °C 6,2 km/h (2 Bft) 100 %
03.05.2026 19:20 16,5 °C 16,1 °C 16,5 °C 16,6 °C 14,4 °C 17,2 °C 88 % 83 % 0 lf 200 cb 1011,5 hPa 0,0 mm 0,5 km/h (0 Bft) O 92 ° 0 min 0 min 0,000 mm 0,0 UV-I 35 W/m² 14,5 °C 16,5 °C 4,1 km/h (1 Bft) 99 %
03.05.2026 19:10 16,6 °C 16,7 °C 16,5 °C 16,6 °C 14,4 °C 17,2 °C 89 % 83 % 0 lf 200 cb 1011,5 hPa 0,0 mm 0,4 km/h (0 Bft) O 92 ° 0 min 0 min 0,051 mm 0,0 UV-I 37 W/m² 14,8 °C 16,6 °C 4,1 km/h (1 Bft) 98 %
03.05.2026 19:00 16,5 °C 16,1 °C 16,5 °C 16,6 °C 14,4 °C 17,8 °C 89 % 84 % 3 lf 200 cb 1011,6 hPa 0,0 mm 1,0 km/h (0 Bft) O 92 ° 0 min 0 min 0,000 mm 0,0 UV-I 43 W/m² 14,7 °C 16,5 °C 8,3 km/h (2 Bft) 98 %
_ Min-Zeit 06:20 06:00 06:20 06:30 19:00 05:30 14:40 17:10 19:10 19:00 19:10 - 20:10 - - - - - - - 06:20 06:20 20:10 14:00
Minimum _ 11,3 °C 10,6 °C 11,3 °C 11,3 °C 14,4 °C 8,9 °C 73 % 70 % 0 lf 200 cb 1011,5 hPa - 0,0 km/h (0 Bft) - - - - - - - 10,0 °C 11,3 °C 0,0 km/h (0 Bft) 94 %
_ Max-Zeit 14:20 15:50 16:10 14:20 19:00 11:20 07:50 08:20 22:10 19:00 12:00 22:30 18:30 - - 08:00 22:30 12:00 11:20 11:20 14:10 16:10 11:10 19:30
Maximum _ 19,1 °C 18,9 °C 19,0 °C 19,1 °C 14,4 °C 32,2 °C 94 % 90 % 15 lf 200 cb 1013,8 hPa 0,2 mm 6,8 km/h
O (2 Bft)
- - 10 min 10 min 0,204 mm 1,7 UV-I 518 W/m² 14,9 °C 19,1 °C 14,5 km/h
O-SO (3 Bft)
100 %
Durchschnitt _ 15,7 °C 15,2 °C 15,6 °C 15,8 °C 14,4 °C 17,0 °C 86 % 81 % 7 lf 200 cb 1012,7 hPa #0,6 mm 0,6 km/h (0 Bft) O - #1:20 h #0 min. #1,067 mm 0,7 UV-I 135 W/m² 13,2 °C 15,7 °C 3,1 km/h (1 Bft) 98 %